Location: Camaret
(48.2753°N, 4.5961°W)
Time: 23:59:07
(UTC+00:00)

USA 215 - Pass Details

Date: 29 October 2020
Orbit: 1102 x 1106 km, 123.0° (Epoch: 23 November)

Event Time Altitude Azimuth Distance (km) Brightness Sun altitude
Exits shadow 18:10:08 13° 67° (ENE) 2,709 4.7 -11.6°
Maximum altitude 18:15:26 42° 3° (N) 1,535 4.0 -12.4°
Drops below altitude 10° 18:21:29 10° 296° (WNW) 2,965 6.5 -13.4°
Sets 18:24:05 0° 289° (WNW) 3,924 7.4 -13.9°
